Temp
52 53 51 51 51 51 50 50 50 49 50 50 50 50 51 52 53 53 53 51 52 51 51 50 50 50 50 50 50 50 51 51 52 52 52 53 55 56 57 59 61 62
51 52 53 51 51 51 50 50 49 49 49 49 50 50 51 52 52 53 53 51 51 50 50 49 49 49 49 49 48 48 48 49 49 52 51 51 52 53 54 55 57 59
51 51 50 50 49 49 50 50 50 49 49 49 50 50 50 51 51 53 53 51 50 49 49 49 49 48 48 48 47 47 47 47 47 49 49 49 50 50 51 52 54 55
50 50 50 50 50 50 50 50 49 49 49 49 49 49 50 50 50 51 50 50 49 48 48 48 47 47 47 47 46 46 46 46 47 47 47 47 48 49 49 50 51 52
50 50 50 50 50 50 50 50 49 49 49 49 49 49 49 49 49 50 50 49 48 47 47 47 47 46 46 46 46 45 46 45 46 46 46 46 47 48 48 49 49 49
49 50 50 50 50 50 50 49 49 49 49 48 48 49 48 49 50 50 49 48 48 47 46 46 46 46 46 45 45 45 45 45 46 46 46 46 47 48 49 49 48 48
49 49 50 51 51 51 50 49 50 50 49 49 49 48 48 48 49 50 50 48 47 47 46 45 45 45 45 44 45 45 45 46 46 46 46 47 47 48 49 49 49 49
48 49 49 50 49 49 50 50 50 49 49 49 47 48 48 47 47 48 49 48 47 46 45 45 45 45 44 44 44 44 44 46 46 46 46 46 47 47 48 48 49 49
48 48 49 48 48 48 48 48 49 49 49 48 47 47 48 48 47 47 47 47 46 46 45 45 44 44 44 43 44 44 44 45 45 46 46 46 46 47 48 49 49 49
47 48 48 47 47 47 47 47 48 48 49 47 47 47 46 47 47 47 46 46 45 45 45 44 44 44 43 43 43 43 44 44 45 46 46 47 47 47 48 48 48 48
46 46 46 46 46 46 46 47 47 47 48 48 47 46 46 46 46 47 46 45 44 44 44 44 43 43 43 43 43 44 44 44 45 46 46 47 47 47 48 47 47 48
45 45 45 45 46 46 46 46 46 46 46 47 47 45 45 45 45 45 46 44 45 45 44 44 44 43 43 42 43 44 43 44 46 47 47 47 47 47 47 47 47 47
44 44 45 44 45 45 45 45 45 45 46 45 46 45 45 44 45 44 45 44 44 44 44 44 43 43 43 42 42 42 43 43 44 45 46 47 47 47 46 46 47 47
43 44 44 45 45 45 45 45 45 45 45 45 46 44 44 44 44 43 44 44 44 44 44 44 43 43 43 42 42 42 42 42 43 43 43 44 45 46 46 46 46 47
44 44 44 45 45 44 44 44 44 44 44 44 44 44 45 44 44 44 43 43 43 43 43 44 43 42 43 42 41 42 42 42 42 42 42 43 43 44 45 46 46 46
44 44 44 44 43 43 43 43 43 43 43 43 43 43 43 44 43 43 43 42 42 42 42 42 42 43 43 42 42 42 42 42 42 42 42 42 42 43 44 45 45 45
43 43 43 42 42 42 42 42 42 42 42 42 42 42 42 42 42 41 41 42 41 41 41 41 42 43 41 40 40 41 43 42 41 41 42 42 42 42 42 43 44 45
42 42 42 41 41 41 41 41 41 41 40 40 40 40 41 41 40 40 40 41 41 41 40 41 41 43 40 40 40 40 41 42 41 41 41 41 42 42 43 43 43 43
42 41 41 40 40 40 40 40 40 40 40 39 39 40 40 39 39 39 39 40 40 39 40 40 40 42 40 40 40 39 39 41 42 41 41 41 41 42 42 42 42 42
41 41 40 39 39 40 40 40 40 39 39 39 39 39 38 38 38 38 39 39 39 39 39 40 40 41 40 40 39 39 39 40 41 41 41 41 41 42 42 42 42 41
40 40 40 39 39 39 39 38 38 38 38 39 38 37 37 37 37 37 38 39 38 38 39 39 40 40 39 39 39 39 39 41 41 41 41 41 41 42 42 42 42 42
40 39 38 38 38 38 38 37 37 36 36 38 38 37 37 37 37 38 37 37 38 38 38 38 39 39 39 39 39 39 40 42 41 41 40 40 41 41 42 42 42 42
39 39 38 37 37 37 37 36 36 37 37 38 36 36 36 36 36 36 37 36 37 37 37 37 38 39 39 39 39 39 40 41 41 40 40 40 40 41 41 42 42 43
38 38 38 37 36 36 36 36 36 37 37 38 35 35 36 35 37 36 37 37 37 37 40 37 37 40 40 39 39 39 40 40 40 40 39 39 39 41 42 42 43 45
36 36 36 36 36 36 36 36 36 36 36 36 35 35 36 35 39 36 37 37 37 38 41 38 38 39 40 39 39 39 40 40 40 40 39 38 39 39 41 41 42 43
38 39 37 36 36 36 36 36 37 35 35 35 36 35 36 36 37 36 36 37 37 37 38 37 38 39 40 39 40 40 40 41 40 40 38 38 39 39 39 40 40 41
MSLP
1023.53 1023.61 1023.81 1023.93 1024.01 1024.01 1024.01 1023.93 1023.89 1023.81 1023.81 1023.73 1023.69 1023.65 1023.57 1023.49 1023.29 1023.13 1023.13 1023.09 1022.97 1022.85 1022.77 1022.69 1022.61 1022.53 1022.37 1022.13 1021.85 1021.53 1021.25 1021.05 1020.89 1020.61 1020.41 1020.09 1019.77 1019.45 1019.01 1018.61 1018.25 1017.93
1023.89 1023.97 1024.09 1024.21 1024.25 1024.25 1024.25 1024.17 1024.17 1024.17 1024.21 1024.13 1024.05 1023.89 1023.73 1023.61 1023.45 1023.25 1023.21 1023.33 1023.25 1023.17 1023.01 1022.85 1022.73 1022.65 1022.53 1022.33 1022.13 1021.81 1021.53 1021.29 1021.09 1020.85 1020.65 1020.45 1020.25 1019.93 1019.57 1019.21 1018.73 1018.17
1024.13 1024.25 1024.37 1024.45 1024.57 1024.57 1024.53 1024.41 1024.37 1024.45 1024.49 1024.49 1024.33 1024.17 1024.09 1023.89 1023.77 1023.53 1023.53 1023.61 1023.57 1023.45 1023.29 1023.13 1022.93 1022.81 1022.69 1022.57 1022.33 1022.13 1021.93 1021.69 1021.49 1021.25 1021.05 1020.85 1020.65 1020.41 1020.13 1019.73 1019.21 1018.73
1024.45 1024.57 1024.61 1024.69 1024.69 1024.69 1024.61 1024.49 1024.57 1024.69 1024.73 1024.65 1024.65 1024.57 1024.41 1024.25 1024.05 1023.93 1023.97 1023.89 1023.85 1023.73 1023.61 1023.37 1023.25 1023.09 1022.93 1022.81 1022.61 1022.37 1022.21 1022.09 1021.93 1021.73 1021.49 1021.25 1021.01 1020.81 1020.53 1020.17 1019.77 1019.37
1024.77 1024.77 1024.81 1024.85 1024.85 1024.77 1024.65 1024.65 1024.81 1024.97 1025.01 1025.05 1024.93 1024.81 1024.65 1024.53 1024.37 1024.29 1024.29 1024.25 1024.17 1024.09 1023.89 1023.73 1023.49 1023.33 1023.17 1023.01 1022.85 1022.73 1022.53 1022.41 1022.21 1022.01 1021.73 1021.49 1021.25 1021.05 1020.73 1020.45 1020.21 1019.81
1024.97 1024.97 1024.97 1024.97 1024.97 1024.89 1024.81 1024.89 1025.09 1025.21 1025.25 1025.17 1025.17 1025.09 1024.97 1024.81 1024.69 1024.65 1024.65 1024.65 1024.53 1024.41 1024.29 1024.05 1023.85 1023.65 1023.49 1023.29 1023.01 1022.93 1022.85 1022.69 1022.45 1022.13 1021.85 1021.57 1021.29 1021.01 1020.77 1020.53 1020.25 1019.97
1025.33 1025.25 1025.21 1025.13 1025.05 1024.97 1025.01 1025.21 1025.29 1025.33 1025.37 1025.37 1025.33 1025.29 1025.25 1025.21 1025.09 1025.01 1024.97 1024.97 1024.89 1024.73 1024.65 1024.45 1024.25 1024.05 1023.85 1023.65 1023.37 1023.21 1023.05 1022.85 1022.57 1022.25 1021.97 1021.65 1021.33 1020.97 1020.69 1020.45 1020.21 1019.97
1025.65 1025.57 1025.53 1025.49 1025.45 1025.45 1025.45 1025.53 1025.57 1025.57 1025.57 1025.57 1025.57 1025.61 1025.57 1025.61 1025.57 1025.49 1025.37 1025.29 1025.17 1025.09 1024.97 1024.85 1024.65 1024.45 1024.25 1023.97 1023.73 1023.53 1023.29 1023.01 1022.73 1022.45 1022.17 1021.85 1021.41 1021.05 1020.73 1020.49 1020.21 1019.85
1025.89 1025.93 1025.89 1025.85 1025.85 1025.85 1025.93 1025.93 1025.93 1025.89 1025.85 1025.89 1025.93 1026.01 1025.97 1025.93 1025.97 1025.89 1025.77 1025.61 1025.49 1025.41 1025.29 1025.13 1024.97 1024.81 1024.57 1024.33 1024.13 1023.93 1023.65 1023.33 1023.01 1022.69 1022.37 1021.97 1021.61 1021.25 1020.85 1020.45 1020.13 1019.85
1026.25 1026.25 1026.21 1026.25 1026.25 1026.33 1026.33 1026.33 1026.25 1026.21 1026.17 1026.21 1026.29 1026.33 1026.33 1026.29 1026.17 1026.13 1026.01 1025.89 1025.77 1025.65 1025.53 1025.45 1025.29 1025.09 1024.89 1024.65 1024.45 1024.25 1023.93 1023.57 1023.21 1022.89 1022.53 1022.21 1021.89 1021.53 1021.09 1020.73 1020.41 1020.05
1026.57 1026.61 1026.61 1026.61 1026.69 1026.69 1026.65 1026.61 1026.57 1026.61 1026.53 1026.53 1026.61 1026.61 1026.61 1026.57 1026.45 1026.33 1026.25 1026.09 1026.01 1025.93 1025.85 1025.73 1025.61 1025.41 1025.17 1024.93 1024.73 1024.53 1024.17 1023.81 1023.45 1023.05 1022.73 1022.45 1022.13 1021.81 1021.49 1021.17 1020.77 1020.41
1026.97 1026.93 1026.97 1027.01 1027.01 1027.01 1027.01 1026.97 1026.93 1026.89 1026.89 1026.85 1026.85 1026.85 1026.85 1026.81 1026.73 1026.61 1026.41 1026.41 1026.33 1026.21 1026.13 1026.01 1025.81 1025.61 1025.45 1025.25 1024.97 1024.65 1024.37 1024.01 1023.53 1023.09 1022.85 1022.57 1022.25 1021.93 1021.69 1021.37 1021.05 1020.65
1027.33 1027.33 1027.33 1027.33 1027.33 1027.33 1027.29 1027.25 1027.25 1027.25 1027.17 1027.13 1027.05 1027.09 1027.05 1027.01 1026.89 1026.81 1026.69 1026.65 1026.61 1026.45 1026.29 1026.17 1025.97 1025.73 1025.57 1025.37 1025.13 1024.85 1024.53 1024.21 1023.81 1023.37 1023.01 1022.61 1022.25 1022.01 1021.77 1021.49 1021.17 1020.85
1027.65 1027.61 1027.61 1027.57 1027.53 1027.53 1027.53 1027.53 1027.53 1027.49 1027.45 1027.41 1027.33 1027.29 1027.21 1027.21 1027.13 1027.05 1026.97 1026.89 1026.81 1026.69 1026.49 1026.25 1026.05 1025.81 1025.61 1025.49 1025.29 1025.01 1024.69 1024.37 1024.01 1023.65 1023.33 1022.93 1022.53 1022.21 1021.89 1021.57 1021.29 1021.05
1027.81 1027.85 1027.81 1027.77 1027.81 1027.81 1027.81 1027.85 1027.81 1027.77 1027.69 1027.65 1027.61 1027.57 1027.45 1027.41 1027.41 1027.33 1027.21 1027.09 1026.97 1026.85 1026.65 1026.41 1026.17 1026.05 1025.85 1025.77 1025.49 1025.09 1024.85 1024.53 1024.17 1023.89 1023.53 1023.17 1022.73 1022.33 1022.01 1021.65 1021.37 1021.13
1028.05 1028.09 1028.09 1028.09 1028.09 1028.13 1028.21 1028.17 1028.09 1028.05 1027.97 1027.93 1027.89 1027.85 1027.81 1027.69 1027.65 1027.53 1027.45 1027.33 1027.21 1027.01 1026.81 1026.61 1026.49 1026.29 1026.25 1026.05 1025.81 1025.45 1024.97 1024.69 1024.33 1024.01 1023.69 1023.33 1022.97 1022.49 1022.05 1021.73 1021.49 1021.25
1028.25 1028.33 1028.29 1028.37 1028.45 1028.45 1028.45 1028.45 1028.41 1028.37 1028.33 1028.25 1028.21 1028.17 1028.09 1028.01 1027.93 1027.77 1027.65 1027.53 1027.41 1027.29 1027.09 1026.89 1026.73 1026.49 1026.41 1026.13 1025.81 1025.53 1025.09 1024.77 1024.53 1024.17 1023.81 1023.49 1023.17 1022.77 1022.29 1021.85 1021.53 1021.25
1028.53 1028.53 1028.61 1028.73 1028.77 1028.81 1028.81 1028.81 1028.77 1028.73 1028.69 1028.65 1028.57 1028.49 1028.41 1028.29 1028.17 1028.09 1027.93 1027.81 1027.65 1027.49 1027.33 1027.13 1026.97 1026.69 1026.53 1026.21 1025.93 1025.61 1025.29 1024.93 1024.65 1024.37 1024.01 1023.65 1023.33 1022.93 1022.49 1022.05 1021.69 1021.33
1028.73 1028.81 1028.97 1029.05 1029.13 1029.13 1029.13 1029.05 1029.01 1028.93 1028.97 1028.97 1028.93 1028.89 1028.69 1028.57 1028.57 1028.37 1028.17 1028.05 1027.85 1027.73 1027.53 1027.33 1027.13 1026.81 1026.65 1026.37 1026.09 1025.77 1025.41 1025.05 1024.77 1024.57 1024.21 1023.89 1023.57 1023.13 1022.69 1022.29 1021.89 1021.53
1029.01 1029.09 1029.25 1029.37 1029.37 1029.33 1029.29 1029.21 1029.21 1029.29 1029.37 1029.33 1029.29 1029.13 1029.05 1028.93 1028.77 1028.61 1028.41 1028.25 1028.13 1028.01 1027.81 1027.53 1027.29 1027.01 1026.81 1026.53 1026.25 1025.93 1025.57 1025.21 1024.97 1024.69 1024.37 1024.09 1023.73 1023.33 1022.89 1022.53 1022.21 1021.81
1029.29 1029.37 1029.41 1029.45 1029.49 1029.53 1029.53 1029.57 1029.61 1029.65 1029.57 1029.53 1029.53 1029.45 1029.33 1029.21 1029.09 1028.89 1028.69 1028.53 1028.37 1028.21 1027.97 1027.73 1027.53 1027.25 1027.01 1026.69 1026.33 1026.01 1025.69 1025.29 1025.05 1024.73 1024.41 1024.13 1023.81 1023.45 1023.09 1022.77 1022.45 1022.05
1029.41 1029.49 1029.53 1029.61 1029.69 1029.77 1029.77 1029.81 1029.89 1029.93 1029.81 1029.77 1029.65 1029.57 1029.45 1029.33 1029.17 1029.05 1028.93 1028.77 1028.57 1028.37 1028.17 1028.01 1027.73 1027.45 1027.17 1026.81 1026.45 1026.17 1025.77 1025.41 1025.13 1024.81 1024.57 1024.25 1023.89 1023.57 1023.21 1022.97 1022.65 1022.17
1029.49 1029.53 1029.69 1029.81 1029.93 1029.93 1030.01 1030.09 1030.05 1029.97 1029.89 1029.93 1029.77 1029.69 1029.57 1029.45 1029.41 1029.33 1029.21 1029.05 1028.81 1028.61 1028.41 1028.29 1028.05 1027.65 1027.29 1026.93 1026.53 1026.33 1025.85 1025.53 1025.25 1024.93 1024.65 1024.41 1024.13 1023.81 1023.45 1023.13 1022.77 1022.21
1029.65 1029.69 1029.77 1029.93 1030.05 1030.09 1030.17 1030.17 1030.13 1030.09 1030.05 1030.09 1030.01 1029.93 1029.77 1029.73 1029.57 1029.45 1029.29 1029.17 1029.01 1028.85 1028.53 1028.49 1028.25 1027.81 1027.41 1027.01 1026.65 1026.41 1026.13 1025.85 1025.49 1025.21 1024.89 1024.61 1024.29 1023.89 1023.53 1023.17 1022.81 1022.29
1029.85 1029.93 1029.97 1030.05 1030.13 1030.25 1030.29 1030.25 1030.29 1030.29 1030.37 1030.29 1030.17 1030.09 1029.97 1029.93 1029.65 1029.57 1029.37 1029.25 1029.17 1029.05 1028.69 1028.61 1028.37 1027.93 1027.49 1027.13 1026.73 1026.49 1026.25 1025.97 1025.69 1025.37 1025.09 1024.77 1024.45 1024.05 1023.61 1023.21 1022.77 1022.29
1029.97 1030.01 1030.13 1030.13 1030.21 1030.33 1030.33 1030.41 1030.49 1030.49 1030.45 1030.41 1030.33 1030.29 1030.13 1030.01 1029.85 1029.77 1029.61 1029.45 1029.33 1029.13 1028.97 1028.77 1028.41 1028.05 1027.61 1027.21 1026.85 1026.53 1026.37 1026.09 1025.81 1025.49 1025.37 1025.09 1024.73 1024.29 1023.81 1023.25 1022.85 1022.33
Wind_Speed
8 7 8 7 7 7 7 8 7 8 8 7 7 7 7 7 7 7 8 8 10 10 10 10 9 9 9 9 9 8 6 7 7 7 8 7 8 9 9 11 11 8
9 8 6 6 7 6 7 7 8 8 8 8 7 7 7 8 8 7 8 9 9 10 10 10 10 10 10 9 10 9 8 8 8 7 8 9 8 9 9 11 10 10
8 8 8 8 7 7 7 7 8 7 7 7 8 8 8 8 8 9 10 11 10 10 11 10 11 11 11 10 10 8 9 9 9 10 9 9 9 8 9 10 9 11
7 7 6 6 6 7 7 8 8 7 8 8 9 8 7 7 8 10 11 12 11 11 10 11 11 11 11 11 10 9 10 8 9 10 10 9 9 9 9 9 10 11
6 5 5 5 5 6 7 9 9 8 8 8 8 8 8 9 9 9 10 10 10 10 10 10 10 10 11 10 11 10 10 9 10 11 10 11 10 10 9 9 11 11
6 5 4 4 4 6 8 9 8 8 8 9 8 8 8 8 9 11 10 9 9 10 10 10 10 10 10 11 11 11 10 10 10 11 10 10 10 9 9 9 10 10
7 7 7 6 7 6 7 7 7 7 8 7 7 9 9 10 10 11 10 9 10 11 11 11 11 11 10 9 12 12 12 11 11 11 11 10 10 11 9 10 10 10
7 7 8 8 9 9 10 9 8 8 8 8 9 8 9 9 10 8 9 9 10 10 10 10 10 11 10 10 12 12 13 10 11 12 12 12 11 13 13 10 11 13
8 8 8 9 10 9 10 9 8 9 9 9 9 8 8 8 8 8 8 8 9 10 10 10 11 10 10 10 11 13 14 13 11 12 12 13 13 13 13 12 12 11
8 8 9 9 9 8 9 8 8 8 8 9 8 7 8 7 7 8 8 8 9 10 10 11 11 10 11 10 12 12 14 14 13 12 12 12 13 13 14 13 13 12
8 7 8 8 8 7 9 8 8 8 7 8 7 8 7 7 7 7 8 9 10 10 10 11 10 10 11 11 11 11 11 9 11 11 11 12 12 13 14 13 13 12
7 7 7 7 7 7 8 8 7 7 7 6 7 8 7 7 7 7 8 9 10 10 11 10 10 10 10 10 10 11 9 9 9 11 11 11 12 12 12 12 12 13
6 6 6 6 7 7 7 7 7 7 7 7 6 7 7 8 8 8 7 7 8 9 10 9 9 10 10 10 10 10 10 10 10 11 11 11 11 11 11 12 12 12
6 6 6 7 6 7 7 7 7 7 7 6 6 7 7 8 9 8 7 7 7 7 7 8 8 10 11 10 10 10 10 9 9 10 11 11 12 12 12 12 12 12
6 5 6 7 7 7 7 7 7 7 7 7 7 7 6 7 7 7 7 7 7 7 7 7 8 10 9 11 12 12 11 10 10 10 10 11 12 12 12 12 12 11
7 6 7 7 7 7 6 6 7 7 7 7 8 8 7 7 8 6 7 7 7 8 7 7 8 8 15 21 18 14 12 9 9 9 10 10 11 13 12 12 12 12
7 7 7 7 6 6 6 7 7 7 7 7 8 7 8 7 7 8 7 7 7 7 8 7 7 10 19 18 19 21 15 10 10 10 10 10 10 12 12 13 13 13
7 7 7 7 7 7 6 6 6 7 7 7 7 8 7 6 9 8 8 7 7 7 7 7 7 13 17 18 19 20 18 11 8 9 9 9 10 12 12 12 13 13
7 7 6 6 6 6 6 6 7 8 8 8 8 6 6 8 8 8 8 8 8 8 8 7 7 15 17 19 18 19 19 13 7 8 9 10 10 12 13 12 12 13
6 6 6 6 6 6 6 7 8 8 7 6 6 7 7 7 8 8 8 9 8 8 7 7 8 13 17 18 17 18 18 14 8 8 9 10 10 11 12 13 13 13
6 5 6 6 6 6 6 7 7 6 7 6 6 6 7 7 7 8 7 8 8 8 7 8 7 15 16 17 17 18 19 12 9 9 9 9 10 10 12 13 13 12
5 6 6 6 6 6 6 6 5 5 6 5 5 6 6 5 7 6 8 9 8 8 8 9 8 14 16 17 17 17 18 9 11 11 10 10 10 11 13 12 13 14
5 6 5 5 5 5 5 4 4 6 6 5 6 6 7 7 6 6 6 7 8 8 8 8 8 12 15 16 17 18 13 11 12 10 9 10 10 10 12 14 14 16
3 4 4 4 4 4 3 3 4 4 5 5 6 6 7 7 6 6 6 6 7 8 7 8 8 11 15 16 17 18 13 10 10 10 11 10 10 9 9 10 14 23
3 4 4 4 3 2 3 3 4 4 3 4 5 5 6 6 6 7 7 7 6 6 10 9 8 9 13 16 17 17 13 8 10 10 10 10 11 10 9 9 10 12
3 4 3 4 3 2 3 3 2 3 5 5 5 5 6 6 6 6 7 7 7 7 6 7 8 9 11 16 17 17 16 9 6 10 11 11 10 9 10 10 10 10
Wind_Direction
51 53 54 52 48 46 40 39 33 36 30 24 25 18 20 15 10 22 40 30 28 25 21 19 16 12 6 0 357 353 358 354 352 347 341 340 341 335 329 331 326 313
54 55 57 58 54 47 47 46 44 40 35 28 23 19 17 16 12 18 34 29 26 24 19 17 15 12 9 6 360 358 354 351 345 352 344 348 343 336 333 332 325 322
56 56 57 56 56 53 52 50 49 43 39 33 29 27 21 17 14 22 32 29 24 21 19 14 13 11 8 5 3 3 360 357 354 349 345 345 341 339 336 332 327 326
54 55 57 56 57 58 54 54 47 42 36 34 31 26 25 20 22 30 33 26 23 19 16 15 12 8 7 4 2 5 5 7 2 354 350 347 347 343 339 335 333 329
47 45 47 53 58 62 60 56 49 43 40 37 33 28 25 25 28 33 29 24 21 17 14 11 8 7 3 3 5 8 10 7 3 359 355 350 349 347 341 339 337 333
34 37 39 53 58 61 59 58 53 47 41 39 35 32 29 26 35 36 28 25 20 18 15 11 8 6 4 359 3 12 7 4 358 353 349 348 344 343 340 334 331 331
39 36 36 36 39 47 57 55 49 44 42 39 33 35 28 29 29 34 30 25 22 20 17 12 7 6 5 358 8 8 5 358 351 350 348 346 339 335 334 338 331 323
45 44 44 44 48 44 46 43 41 40 35 32 35 28 31 30 28 24 26 24 25 21 17 14 9 8 5 1 10 8 4 358 349 347 347 344 343 343 340 337 333 332
51 47 48 48 49 46 47 42 41 40 37 37 33 32 28 32 29 26 21 23 26 23 18 16 11 8 7 4 10 9 3 359 353 351 350 348 347 344 342 340 337 334
50 48 50 47 48 43 44 40 39 37 38 37 35 33 34 24 28 27 23 23 25 22 22 16 13 9 8 7 9 7 360 355 358 355 353 352 351 350 347 343 339 337
44 42 46 43 45 40 41 40 37 37 34 38 33 33 29 27 24 22 25 24 24 21 17 17 13 10 8 6 8 1 348 342 351 356 354 352 352 349 347 344 339 337
45 43 42 41 40 39 38 37 35 31 31 31 32 31 25 25 26 20 24 22 23 20 20 16 13 13 10 5 1 357 348 350 350 357 357 350 346 341 343 343 341 339
53 49 48 46 43 41 39 35 32 28 26 26 22 25 27 23 21 24 19 20 17 16 18 12 10 12 11 6 359 354 351 347 348 349 350 350 341 340 340 340 341 342
57 54 54 52 49 45 41 37 32 29 26 22 21 22 24 23 19 18 14 16 13 12 7 12 9 12 11 6 359 353 350 348 346 347 345 343 341 341 339 341 342 343
63 61 57 53 47 44 38 32 30 25 24 22 22 20 17 18 15 14 13 13 12 11 7 8 14 11 11 3 357 354 354 348 347 344 343 340 341 342 342 343 343 341
69 63 59 53 45 40 33 30 25 23 22 23 22 20 19 16 15 11 13 12 9 8 9 11 11 12 3 2 4 1 352 348 345 344 341 342 342 344 342 343 342 340
69 64 59 51 44 39 33 28 24 21 21 19 18 18 18 15 15 17 14 7 10 6 7 9 5 6 1 1 0 1 1 351 350 342 341 342 343 343 343 341 341 340
72 68 60 48 42 34 28 25 24 25 25 22 19 16 10 12 20 14 13 8 6 5 7 4 360 360 0 0 360 358 357 352 343 343 342 342 342 343 343 342 341 339
74 70 60 48 38 33 29 29 30 31 28 23 20 8 13 20 10 12 8 5 7 5 1 359 352 358 359 359 358 356 351 348 342 341 344 343 341 342 344 344 342 339
76 73 64 54 44 40 37 34 32 28 22 22 18 14 21 16 13 11 7 8 5 3 353 355 355 355 356 355 353 352 348 348 344 338 344 344 342 342 347 345 344 341
79 76 71 58 49 44 41 36 29 19 19 14 18 17 19 16 12 10 5 5 0 1 357 358 351 350 354 352 349 349 347 351 348 349 349 348 346 342 349 349 346 343
92 81 71 62 54 46 42 32 24 17 19 4 16 14 15 16 15 15 10 2 359 1 1 357 347 348 352 350 347 351 347 353 354 354 352 348 347 348 350 352 350 349
97 90 81 72 60 55 40 27 21 14 15 11 20 16 16 15 12 7 357 2 359 0 357 357 347 346 351 350 350 356 354 1 359 355 351 352 351 346 352 354 352 353
98 96 94 79 67 64 45 24 19 16 19 10 27 13 17 5 360 6 6 6 5 0 359 2 350 343 350 352 354 0 360 2 360 358 356 354 350 345 348 347 351 351
103 99 105 99 89 65 47 37 21 23 359 6 14 18 17 4 8 15 8 11 7 1 3 6 351 345 350 351 354 0 5 1 4 1 358 355 352 345 343 341 337 340
113 112 112 115 114 77 48 32 12 26 14 14 11 16 15 14 16 18 14 5 356 1 0 357 355 350 348 350 353 358 6 1 358 6 2 352 347 341 343 344 341 339